Weather Roundup
Issued by NWS

Home | Current Version | Previous Version | Graphics & Text | Print | Product List | Glossary Off
Versions: 1 2 3 4 5 6 7 8 9 10 11 12 13 14 15 16 17 18 19 20 21 22 23 24 25 26 27 28 29 30 31 32 33 34 35 36 37 38 39 40 41 42 43 44 45 46 47 48 49 50

282
NZUS93 KARX 061159
HRRWXR

CURRENT HOURLY OBSERVATIONS ACROSS
MUCH OF THE UPPER MISSISSIPPI VALLEY
NATIONAL WEATHER SERVICE LA CROSSE WI
700 AM CDT FRI MAY 06 2016


...SOUTHEAST MINNESOTA...


CITY           SKY/WX    TMP DP  RH WIND       PRES   REMARKS
ROCHESTER      NOT AVBL
ROCHESTER/MAYO FAIR      63  39  41 W10G25    29.91S
WINONA         SUNNY     48  43  81 CALM      29.91R
AUSTIN         CLEAR     57  41  54 W6        29.93S
ALBERT LEA     CLEAR     61  39  44 W8        29.93S
DODGE CENTER   SUNNY     57  41  54 W9        29.93R
PRESTON        SUNNY     57  40  51 W6        29.93R
OWATONNA       CLEAR     55  41  58 SW6       29.93R
FARIBAULT      NOT AVBL
$$

...ELSEWHERE IN MINNESOTA...


CITY           SKY/WX    TMP DP  RH WIND       PRES   REMARKS
MINNEAPOLIS    NOT AVBL
INTNL FALLS    NOT AVBL
DULUTH         NOT AVBL
RED WING       SUNNY     61  43  51 W6        29.88S
REDWOOD FALLS  NOT AVBL
MANKATO        NOT AVBL
WORTHINGTON    NOT AVBL
FAIRMONT       NOT AVBL
$$

...SOUTHWEST WISCONSIN...


CITY           SKY/WX    TMP DP  RH WIND       PRES   REMARKS
LA CROSSE      NOT AVBL
PRAIRIE DU CHI PTSUNNY   48  41  75 E3        29.95R
BOSCOBEL       CLOUDY    47  43  86 CALM      29.96R
LONE ROCK      NOT AVBL
PLATTEVILLE    SUNNY     50  39  67 S7        29.96R
FORT MC COY    MOSUNNY   43  41  91 CALM      29.92R
MAUSTON-NEW LI PTSUNNY   53  39  60 CALM      29.91R
VIROQUA        FAIR      52  39  61 SW6       29.93R
WIS DELLS      PTSUNNY   56  36  46 SW6       29.92S
$$

...ELSEWHERE IN WISCONSIN...


CITY           SKY/WX    TMP DP  RH WIND       PRES   REMARKS
MILWAUKEE      CLOUDY    52  42  69 S3        29.96R
MADISON        MOSUNNY   52  38  58 S6        29.95R
GREEN BAY      NOT AVBL
EAU CLAIRE     NOT AVBL
BLACK RVR FLS  FAIR      41  40  95 CALM      29.90R
MEDFORD        MOSUNNY   52  40  63 SW5       29.87R
WAUSAU         NOT AVBL
WIS RAPIDS     NOT AVBL
MARSHFIELD     NOT AVBL
RICE LAKE      SUNNY     47  42  83 CALM      29.87S
$$

...NORTHEAST IOWA...


CITY           SKY/WX    TMP DP  RH WIND       PRES   REMARKS
WATERLOO       SUNNY     52  41  66 SW5       29.96R
DUBUQUE        PTSUNNY   49  42  77 SW5       29.97R
DECORAH        MOSUNNY   54  39  58 SW3       29.93S
MASON CITY     CLEAR     58  42  55 W13       29.96R
CHARLES CITY   SUNNY     52  39  62 SW5       29.95R
OELWEIN        SUNNY     45  41  87 S5        29.97R
$$

...ELSEWHERE IN IOWA...


CITY           SKY/WX    TMP DP  RH WIND       PRES   REMARKS
DES MOINES     NOT AVBL
IOWA CITY      SUNNY     48  41  76 CALM      30.02R
FORT DODGE     CLEAR     52  39  62 SW3       29.97S
MARSHALLTOWN   CLEAR     50  41  71 SW7       29.98R
CEDAR RAPIDS   SUNNY     50  40  68 SW5       29.99R
$$

...NORTHERN ILLINOIS...


CITY           SKY/WX    TMP DP  RH WIND       PRES   REMARKS
CHICAGO-OHARE  CLOUDY    52  43  71 SW3       29.99R
CHICAGO-MIDWAY CLOUDY    52  43  71 CALM      29.99R
MOLINE         SUNNY     47  42  83 CALM      30.00R
ROCKFORD       CLOUDY    50  41  71 SW5       30.02R
PEORIA         SUNNY     45  40  82 CALM      30.04R
$$

NOTE: "FAIR" INDICATES FEW OR NO CLOUDS BELOW 12,000 FEET WITH NO
SIGNIFICANT WEATHER AND/OR OBSTRUCTIONS TO VISIBILITY. WIND
SPEEDS ARE IN MILES-PER-HOUR.




USA.gov is the U.S. government's official web portal to all federal, state and local government web resources and services.